This is the latest recevied weather packets stored in our database for station/object NC4J. If no packets are shown the sender has not sent any weather packets the latest 10 day(s).
| Time | Temp. | Humidity | Pressure | Rain* | Wind** | Luminosity | Snow |
|---|---|---|---|---|---|---|---|
| 1777668426 | 17.78° C | 46% | 1012.5 hPa | 0 mm | - | 108 W/m² | - |
| 1777668122 | 17.78° C | 45% | 1012.9 hPa | 0 mm | - | 97 W/m² | - |
| 1777667818 | 17.78° C | 46% | 1012.8 hPa | 0 mm | - | 106 W/m² | - |
| 1777667213 | 17.78° C | 47% | 1012.9 hPa | 0 mm | - | 108 W/m² | - |
| 1777666910 | 17.78° C | 48% | 1012.8 hPa | 0 mm | - | 95 W/m² | - |
| 1777666607 | 17.78° C | 45% | 1013.1 hPa | 0 mm | - | 183 W/m² | - |
| 1777666303 | 17.78° C | 49% | 1013.2 hPa | 0 mm | - | 119 W/m² | - |
| 1777666000 | 17.22° C | 46% | 1013.4 hPa | 0 mm | - | 211 W/m² | - |
| 1777665395 | 16.67° C | 49% | 1013.5 hPa | 0 mm | - | 137 W/m² | - |
| 1777665090 | 16.67° C | 48% | 1013.5 hPa | 0 mm | - | 225 W/m² | - |
| 1777664482 | 17.22° C | 49% | 1013.5 hPa | 0 mm | - | 174 W/m² | - |
| 1777664179 | 16.67° C | 50% | 1013.4 hPa | 0 mm | - | 123 W/m² | - |
| 1777663878 | 16.67° C | 47% | 1013.5 hPa | 0 mm | - | 119 W/m² | - |
| 1777663574 | 16.67° C | 47% | 1013.6 hPa | 0 mm | - | 152 W/m² | - |
| 1777663272 | 16.67° C | 49% | 1013.6 hPa | 0 mm | - | 141 W/m² | - |
| 1777661754 | 16.67° C | 48% | 1013.9 hPa | 0 mm | - | 135 W/m² | - |
| 1777661146 | 16.67° C | 48% | 1014.1 hPa | 0 mm | - | 141 W/m² | - |
| 1777660543 | 16.67° C | 47% | 1014.2 hPa | 0 mm | - | 138 W/m² | - |
| 1777659633 | 17.22° C | 45% | 1014 hPa | 0 mm | - | 152 W/m² | - |
| 1777659331 | 16.67° C | 46% | 1014 hPa | 0 mm | - | 159 W/m² | - |
| 1777659027 | 16.67° C | 47% | 1014.2 hPa | 0 mm | - | 140 W/m² | - |
| 1777655690 | 16.67° C | 42% | 1014.9 hPa | 0 mm | - | 151 W/m² | - |
| 1777653571 | 16.67° C | 41% | 1015.1 hPa | 0 mm | - | 791 W/m² | - |
| 1777652660 | 16.67° C | 39% | 1015.4 hPa | 0 mm | - | 118 W/m² | - |
| 1777652054 | 16.11° C | 45% | 1015.5 hPa | 0 mm | - | 149 W/m² | - |
* Rain latest hour (hover to see other rain measurements)
** Current wind speed in m/s (hover to see current wind gust speed)